| time (UTC) | temp F | wind direction | speed MPH | gust MPH | rain 1hr in | rain 24hr in | rain mn in | humidity % | barometer mb |
| 20260506134554 | 33 | 360 | 0.0 | 3.0 | 0.00 | 0.00 | 0.00 | 62 | 1015.7 |
| 20260506133105 | 31 | 0 | 0.0 | 0.0 | 0.00 | 0.00 | 0.00 | 62 | 1015.8 |
| 20260506131555 | 27 | 0 | 0.0 | 0.0 | 0.00 | 0.00 | 0.00 | 64 | 1015.9 |
| 20260506130056 | 24 | 0 | 0.0 | 0.0 | 0.00 | 0.00 | 0.00 | 66 | 1015.9 |
| 20260506124550 | 22 | 0 | 0.0 | 1.0 | 0.00 | 0.00 | 0.00 | 68 | 1015.9 |
| 20260506123053 | 20 | 0 | 0.0 | 0.0 | 0.00 | 0.00 | 0.00 | 70 | 1016.0 |
| 20260506121614 | 19 | 360 | 1.0 | 4.0 | 0.00 | 0.00 | 0.00 | 69 | 1016.0 |
| 20260506120120 | 19 | 360 | 3.0 | 4.0 | 0.00 | 0.00 | 0.00 | 69 | 1016.2 |
| 20260506114557 | 19 | 360 | 3.0 | 4.0 | 0.00 | 0.00 | 0.00 | 69 | 1016.2 |
| 20260506113109 | 19 | 0 | 0.0 | 2.0 | 0.00 | 0.00 | 0.00 | 68 | 1016.3 |
| 20260506111552 | 19 | 0 | 0.0 | 4.0 | 0.00 | 0.00 | 0.00 | 68 | 1016.5 |
| 20260506110058 | 18 | 360 | 0.0 | 2.0 | 0.00 | 0.00 | 0.00 | 69 | 1016.8 |
| 20260506104553 | 19 | 0 | 0.0 | 3.0 | 0.00 | 0.00 | 0.00 | 67 | 1017.0 |
| 20260506103056 | 20 | 360 | 3.0 | 5.0 | 0.00 | 0.00 | 0.00 | 66 | 1017.0 |
| 20260506101555 | 19 | 360 | 2.0 | 4.0 | 0.00 | 0.00 | 0.00 | 67 | 1017.1 |
| 20260506100058 | 20 | 360 | 3.0 | 4.0 | 0.00 | 0.00 | 0.00 | 66 | 1017.4 |
| 20260506094557 | 20 | 360 | 2.0 | 4.0 | 0.00 | 0.00 | 0.00 | 66 | 1017.4 |
| 20260506093056 | 20 | 360 | 1.0 | 4.0 | 0.00 | 0.00 | 0.00 | 66 | 1017.6 |
| 20260506091554 | 21 | 360 | 2.0 | 3.0 | 0.00 | 0.00 | 0.00 | 66 | 1017.7 |
| 20260506090052 | 21 | 360 | 0.0 | 2.0 | 0.00 | 0.00 | 0.00 | 66 | 1017.8 |
| 20260506084550 | 22 | 0 | 0.0 | 0.0 | 0.00 | 0.00 | 0.00 | 65 | 1017.9 |
| 20260506083051 | 22 | 0 | 0.0 | 3.0 | 0.00 | 0.00 | 0.00 | 64 | 1018.0 |
| 20260506081553 | 23 | 0 | 0.0 | 0.0 | 0.00 | 0.00 | 0.00 | 64 | 1018.2 |
| 20260506073100 | 24 | 0 | 0.0 | 3.0 | 0.00 | 0.00 | 0.00 | 61 | 1018.5 |
| 20260506071555 | 26 | 0 | 0.0 | 3.0 | 0.00 | 0.00 | 0.00 | 59 | 1018.5 |
| 20260506070114 | 27 | 16 | 2.0 | 4.0 | 0.00 | 0.00 | 0.00 | 59 | 1018.6 |
| 20260506061602 | 28 | 16 | 2.0 | 3.0 | 0.00 | 0.00 | 0.00 | 56 | 1018.5 |
| 20260506044558 | 30 | 16 | 3.0 | 4.0 | 0.00 | 0.00 | 0.00 | 50 | 1018.7 |
| 20260506043051 | 32 | 16 | 1.0 | 3.0 | 0.00 | 0.00 | 0.00 | 49 | 1018.7 |
| 20260506041556 | 30 | 16 | 0.0 | 0.0 | 0.00 | 0.00 | 0.00 | 50 | 1018.8 |
| 20260506040059 | 32 | 0 | 0.0 | 0.0 | 0.00 | 0.00 | 0.00 | 48 | 1018.8 |
| 20260506034555 | 33 | 0 | 1.0 | 4.0 | 0.00 | 0.00 | 0.00 | 47 | 1018.9 |
| 20260506033052 | 34 | 16 | 1.0 | 3.0 | 0.00 | 0.00 | 0.00 | 44 | 1018.8 |
| 20260506031601 | 37 | 16 | 2.0 | 5.0 | 0.00 | 0.00 | 0.00 | 41 | 1018.7 |
| 20260506030105 | 39 | 16 | 4.0 | 8.0 | 0.00 | 0.00 | 0.00 | 40 | 1018.6 |
| 20260506024546 | 41 | 13 | 7.0 | 9.0 | 0.00 | 0.00 | 0.00 | 38 | 1018.5 |
| 20260506023055 | 43 | 5 | 6.0 | 13.0 | 0.00 | 0.00 | 0.00 | 37 | 1018.4 |
| 20260506021551 | 44 | 5 | 10.0 | 15.0 | 0.00 | 0.00 | 0.00 | 36 | 1018.4 |
| 20260506020050 | 45 | 5 | 10.0 | 17.0 | 0.00 | 0.00 | 0.00 | 35 | 1018.3 |
| 20260506014600 | 46 | 14 | 12.0 | 19.0 | 0.00 | 0.00 | 0.00 | 33 | 1018.3 |
| 20260506013051 | 46 | 352 | 13.0 | 18.0 | 0.00 | 0.00 | 0.00 | 33 | 1018.2 |
| 20260506011555 | 47 | 352 | 16.0 | 21.0 | 0.00 | 0.00 | 0.00 | 31 | 1018.1 |
| 20260506010059 | 47 | 352 | 16.0 | 22.0 | 0.00 | 0.00 | 0.00 | 30 | 1018.0 |
| 20260506004623 | 48 | 352 | 15.0 | 21.0 | 0.00 | 0.00 | 0.00 | 29 | 1018.0 |
| 20260506003053 | 48 | 351 | 15.0 | 24.0 | 0.00 | 0.00 | 0.00 | 30 | 1018.0 |
| 20260506001550 | 48 | 24 | 13.0 | 24.0 | 0.00 | 0.00 | 0.00 | 31 | 1018.0 |
| 20260506000054 | 47 | 352 | 15.0 | 24.0 | 0.00 | 0.00 | 0.00 | 32 | 1018.1 |
| 20260505234613 | 49 | 340 | 14.0 | 26.0 | 0.00 | 0.00 | 0.00 | 32 | 1018.1 |
| 20260505233055 | 47 | 352 | 18.0 | 23.0 | 0.00 | 0.00 | 0.00 | 33 | 1018.2 |
| 20260505231552 | 48 | 9 | 16.0 | 21.0 | 0.00 | 0.00 | 0.00 | 32 | 1018.2 |
| 20260505230056 | 49 | 329 | 17.0 | 26.0 | 0.00 | 0.00 | 0.00 | 29 | 1018.1 |
| 20260505224601 | 49 | 9 | 16.0 | 27.0 | 0.00 | 0.00 | 0.00 | 31 | 1018.1 |
| 20260505223103 | 49 | 5 | 16.0 | 25.0 | 0.00 | 0.00 | 0.00 | 29 | 1018.0 |
| 20260505221610 | 49 | 5 | 19.0 | 28.0 | 0.00 | 0.00 | 0.00 | 31 | 1018.1 |
| 20260505220138 | 49 | 352 | 14.0 | 29.0 | 0.00 | 0.00 | 0.00 | 32 | 1018.0 |
| 20260505214614 | 49 | 351 | 17.0 | 27.0 | 0.00 | 0.00 | 0.00 | 32 | 1018.1 |
| 20260505213053 | 49 | 5 | 16.0 | 26.0 | 0.00 | 0.00 | 0.00 | 32 | 1018.1 |
| 20260505211608 | 49 | 331 | 14.0 | 27.0 | 0.00 | 0.00 | 0.00 | 32 | 1018.2 |
| 20260505210054 | 49 | 332 | 17.0 | 27.0 | 0.00 | 0.00 | 0.00 | 32 | 1018.2 |
| 20260505204551 | 49 | 351 | 17.0 | 27.0 | 0.00 | 0.00 | 0.00 | 33 | 1018.4 |
| 20260505203054 | 49 | 352 | 19.0 | 31.0 | 0.00 | 0.00 | 0.00 | 33 | 1018.5 |
| 20260505201606 | 49 | 9 | 17.0 | 28.0 | 0.00 | 0.00 | 0.00 | 32 | 1018.4 |
| 20260505194602 | 49 | 349 | 13.0 | 28.0 | 0.00 | 0.00 | 0.00 | 35 | 1018.4 |
| 20260505193052 | 49 | 351 | 14.0 | 25.0 | 0.00 | 0.00 | 0.00 | 35 | 1018.4 |
| 20260505191554 | 47 | 321 | 13.0 | 25.0 | 0.00 | 0.00 | 0.00 | 37 | 1018.7 |
| 20260505190052 | 48 | 327 | 14.0 | 25.0 | 0.00 | 0.00 | 0.00 | 33 | 1018.5 |
| 20260505184550 | 47 | 344 | 14.0 | 23.0 | 0.00 | 0.00 | 0.00 | 38 | 1018.6 |
| 20260505183052 | 47 | 360 | 16.0 | 27.0 | 0.00 | 0.00 | 0.00 | 38 | 1018.7 |
| 20260505181555 | 46 | 331 | 12.0 | 22.0 | 0.00 | 0.00 | 0.00 | 42 | 1018.7 |
| 20260505180058 | 46 | 5 | 15.0 | 25.0 | 0.00 | 0.00 | 0.00 | 41 | 1018.7 |
| 20260505174553 | 45 | 350 | 15.0 | 20.0 | 0.00 | 0.00 | 0.00 | 45 | 1018.9 |
| 20260505173100 | 44 | 9 | 15.0 | 21.0 | 0.00 | 0.00 | 0.00 | 44 | 1018.9 |
| 20260505171556 | 43 | 342 | 15.0 | 20.0 | 0.00 | 0.00 | 0.00 | 45 | 1018.8 |
| 20260505170100 | 43 | 338 | 15.0 | 22.0 | 0.00 | 0.00 | 0.00 | 46 | 1018.9 |
| 20260505164548 | 42 | 342 | 14.0 | 21.0 | 0.00 | 0.00 | 0.00 | 50 | 1018.9 |
| 20260505163054 | 42 | 327 | 11.0 | 21.0 | 0.00 | 0.00 | 0.00 | 53 | 1019.0 |
| 20260505161554 | 42 | 344 | 12.0 | 21.0 | 0.00 | 0.00 | 0.00 | 53 | 1018.9 |
| 20260505153054 | 43 | 360 | 9.0 | 14.0 | 0.00 | 0.00 | 0.00 | 60 | 1019.2 |
| 20260505151552 | 40 | 314 | 10.0 | 17.0 | 0.00 | 0.00 | 0.00 | 60 | 1019.3 |